TimeCST,TemperatureF,Dew PointF,Humidity,Sea Level PressureIn,VisibilityMPH,Wind Direction,Wind SpeedMPH,Gust SpeedMPH,PrecipitationIn,Events,Conditions,WindDirDegrees,DateUTC
12:14 AM,-2.2,-5.8,85,30.06,10.0,WNW,6.9,-,N/A,,Clear,300,2013-02-03 06:14:00
12:34 AM,-2.2,-5.8,85,30.06,10.0,WNW,8.1,-,N/A,,Clear,300,2013-02-03 06:34:00
12:55 AM,-0.4,-4.0,85,30.06,10.0,West,3.5,-,N/A,,Clear,280,2013-02-03 06:55:00
1:14 AM,-0.4,-5.8,78,30.05,10.0,NW,4.6,-,N/A,,Clear,310,2013-02-03 07:14:00
1:34 AM,-2.2,-5.8,85,30.05,10.0,NW,6.9,-,N/A,,Clear,320,2013-02-03 07:34:00
1:55 AM,-5.8,-9.4,84,30.06,10.0,NW,5.8,-,N/A,,Clear,310,2013-02-03 07:55:00
2:14 AM,-7.6,-11.2,84,30.06,10.0,NW,4.6,-,N/A,,Clear,310,2013-02-03 08:14:00
2:34 AM,-7.6,-11.2,84,30.07,10.0,WNW,9.2,-,N/A,,Clear,300,2013-02-03 08:34:00
2:55 AM,-5.8,-9.4,84,30.08,10.0,WNW,8.1,-,N/A,,Clear,290,2013-02-03 08:55:00
3:14 AM,-0.4,-2.2,92,30.08,10.0,West,8.1,-,N/A,,Clear,280,2013-02-03 09:14:00
3:55 AM,1.4,-0.4,92,30.06,10.0,West,4.6,-,N/A,,Clear,280,2013-02-03 09:55:00
4:14 AM,3.2,-0.4,85,30.06,10.0,WSW,3.5,-,N/A,,Clear,250,2013-02-03 10:14:00
4:34 AM,3.2,-0.4,85,30.08,10.0,West,6.9,-,N/A,,Clear,270,2013-02-03 10:34:00
4:55 AM,3.2,-0.4,85,30.08,10.0,West,5.8,-,N/A,,Clear,260,2013-02-03 10:55:00
5:14 AM,3.2,-0.4,85,30.08,10.0,West,5.8,-,N/A,,Clear,280,2013-02-03 11:14:00
5:35 AM,3.2,-0.4,85,30.08,10.0,NW,4.6,-,N/A,,Clear,320,2013-02-03 11:35:00
5:55 AM,3.2,-0.4,85,30.08,10.0,NW,5.8,-,N/A,Snow,Light Snow,320,2013-02-03 11:55:00
6:14 AM,3.2,-0.4,85,30.08,10.0,North,9.2,-,N/A,,Clear,360,2013-02-03 12:14:00
6:35 AM,3.2,-0.4,85,30.08,10.0,NNW,5.8,-,N/A,,Scattered Clouds,340,2013-02-03 12:35:00
6:55 AM,1.4,-2.2,85,30.09,10.0,North,8.1,-,N/A,,Clear,360,2013-02-03 12:55:00
7:14 AM,-0.4,-5.8,78,30.09,10.0,North,6.9,-,N/A,,Clear,360,2013-02-03 13:14:00
7:35 AM,-0.4,-5.8,78,30.09,10.0,North,5.8,-,N/A,,Clear,350,2013-02-03 13:35:00
7:54 AM,-0.4,-4.0,85,30.09,10.0,North,3.5,-,N/A,,Clear,350,2013-02-03 13:54:00
8:14 AM,3.2,-2.2,78,30.09,10.0,NNW,5.8,-,N/A,,Clear,340,2013-02-03 14:14:00
8:35 AM,1.4,-2.2,85,30.10,10.0,NNW,5.8,-,N/A,,Clear,340,2013-02-03 14:35:00
8:54 AM,1.4,-2.2,85,30.09,10.0,North,6.9,-,N/A,,Clear,360,2013-02-03 14:54:00
9:14 AM,1.4,-4.0,78,30.09,10.0,North,5.8,-,N/A,,Clear,360,2013-02-03 15:14:00
9:35 AM,1.4,-4.0,78,30.09,10.0,North,5.8,-,N/A,,Clear,10,2013-02-03 15:35:00
9:54 AM,-0.4,-5.8,78,30.09,10.0,North,5.8,-,N/A,,Clear,10,2013-02-03 15:54:00
10:14 AM,-0.4,-5.8,78,30.09,10.0,North,3.5,-,N/A,,Clear,360,2013-02-03 16:14:00
10:35 AM,1.4,-4.0,78,30.08,10.0,NNE,3.5,-,N/A,,Clear,20,2013-02-03 16:35:00
10:54 AM,1.4,-4.0,78,30.08,10.0,Calm,Calm,-,N/A,,Clear,0,2013-02-03 16:54:00
11:14 AM,3.2,-2.2,78,30.08,10.0,Calm,Calm,-,N/A,,Clear,0,2013-02-03 17:14:00
11:35 AM,3.2,-4.0,72,30.07,10.0,Calm,Calm,-,N/A,,Clear,0,2013-02-03 17:35:00
11:54 AM,3.2,-2.2,78,30.07,10.0,Calm,Calm,-,N/A,,Clear,0,2013-02-03 17:54:00
12:14 PM,3.2,-4.0,72,30.06,10.0,Calm,Calm,-,N/A,,Clear,0,2013-02-03 18:14:00
12:34 PM,3.2,-4.0,72,30.06,10.0,Calm,Calm,-,N/A,,Clear,0,2013-02-03 18:34:00
12:54 PM,3.2,-2.2,78,30.06,10.0,Calm,Calm,-,N/A,,Clear,0,2013-02-03 18:54:00
1:14 PM,3.2,-2.2,78,30.05,10.0,North,3.5,-,N/A,,Clear,360,2013-02-03 19:14:00
1:34 PM,3.2,-2.2,78,30.05,10.0,North,3.5,-,N/A,,Clear,10,2013-02-03 19:34:00
1:55 PM,3.2,-4.0,72,30.04,10.0,Calm,Calm,-,N/A,,Clear,0,2013-02-03 19:55:00
2:14 PM,5.0,-4.0,66,30.03,10.0,Calm,Calm,-,N/A,,Clear,0,2013-02-03 20:14:00
2:34 PM,6.8,-4.0,61,30.03,10.0,Calm,Calm,-,N/A,,Clear,0,2013-02-03 20:34:00
2:55 PM,5.0,-4.0,66,30.04,10.0,Calm,Calm,-,N/A,,Scattered Clouds,0,2013-02-03 20:55:00
3:14 PM,5.0,-4.0,66,30.04,10.0,Calm,Calm,-,N/A,,Scattered Clouds,0,2013-02-03 21:14:00
3:34 PM,5.0,-5.8,61,30.04,10.0,Calm,Calm,-,N/A,,Scattered Clouds,0,2013-02-03 21:34:00
3:55 PM,5.0,-4.0,66,30.04,10.0,Calm,Calm,-,N/A,,Clear,0,2013-02-03 21:55:00
4:35 PM,5.0,-4.0,66,30.03,10.0,NE,4.6,-,N/A,,Scattered Clouds,50,2013-02-03 22:35:00
4:55 PM,3.2,-5.8,66,30.04,10.0,Calm,Calm,-,N/A,,Scattered Clouds,0,2013-02-03 22:55:00
5:14 PM,3.2,-5.8,66,30.04,10.0,Calm,Calm,-,N/A,,Clear,0,2013-02-03 23:14:00
5:35 PM,3.2,-5.8,66,30.04,10.0,Calm,Calm,-,N/A,,Clear,0,2013-02-03 23:35:00
5:55 PM,-0.4,-5.8,78,30.05,10.0,NNE,4.6,-,N/A,,Clear,20,2013-02-03 23:55:00
6:14 PM,-2.2,-7.6,78,30.05,10.0,NNE,3.5,-,N/A,,Clear,20,2013-02-04 00:14:00
6:35 PM,-2.2,-7.6,78,30.05,10.0,NNE,4.6,-,N/A,,Clear,20,2013-02-04 00:35:00
6:54 PM,-2.2,-9.4,71,30.05,10.0,NNE,4.6,-,N/A,,Clear,20,2013-02-04 00:54:00
7:14 PM,-2.2,-9.4,71,30.04,10.0,NE,5.8,-,N/A,,Clear,40,2013-02-04 01:14:00
7:35 PM,-2.2,-9.4,71,30.04,10.0,NE,4.6,-,N/A,,Clear,40,2013-02-04 01:35:00
7:54 PM,-4.0,-9.4,78,30.05,10.0,NNE,3.5,-,N/A,,Clear,30,2013-02-04 01:54:00
8:14 PM,-4.0,-9.4,78,30.05,10.0,NNE,3.5,-,N/A,,Clear,30,2013-02-04 02:14:00
8:35 PM,-4.0,-9.4,78,30.05,10.0,NE,4.6,-,N/A,,Clear,40,2013-02-04 02:35:00
8:54 PM,-5.8,-9.4,84,30.06,10.0,NNE,3.5,-,N/A,,Clear,20,2013-02-04 02:54:00
9:15 PM,-5.8,-9.4,84,30.06,10.0,NNE,3.5,-,N/A,,Clear,30,2013-02-04 03:15:00
9:34 PM,-5.8,-9.4,84,30.06,10.0,Calm,Calm,-,N/A,,Scattered Clouds,0,2013-02-04 03:34:00
9:54 PM,-4.0,-9.4,78,30.06,10.0,NE,3.5,-,N/A,,Scattered Clouds,40,2013-02-04 03:54:00
10:15 PM,-2.2,-7.6,78,30.07,10.0,Calm,Calm,-,N/A,,Scattered Clouds,0,2013-02-04 04:15:00
10:34 PM,-0.4,-5.8,78,30.06,10.0,NE,4.6,-,N/A,,Scattered Clouds,40,2013-02-04 04:34:00
10:54 PM,-0.4,-7.6,72,30.06,10.0,NE,3.5,-,N/A,,Scattered Clouds,50,2013-02-04 04:54:00
11:15 PM,-0.4,-7.6,72,30.06,10.0,NE,4.6,-,N/A,,Scattered Clouds,50,2013-02-04 05:15:00
11:34 PM,-0.4,-7.6,72,30.07,10.0,ENE,3.5,-,N/A,,Scattered Clouds,60,2013-02-04 05:34:00
11:54 PM,-2.2,-7.6,78,30.07,10.0,ENE,4.6,-,N/A,,Clear,60,2013-02-04 05:54:00